Voltar ao catálogo

FENGYUN 1C DEB

AtivoSSO
NORAD 31996·DEBRIS·🇨🇳 China

Lançado May 10, 1999 de Taiyuan Satellite Launch Center

Loading…

Próximas Passagens (próximas 24 horas)

TLE

EnvelhecendoSource: Space-Track

Época: Sep 11, 2026, 00:23 UTC

1 31996U 99025CPZ 26254.01614681  .00001628  00000-0  16894-2 0  9996
2 31996  99.2977 178.6083 0292454 144.7704 217.3160 13.59849519583874

Acompanhe FENGYUN 1C DEB em tempo real com AllMySat

Download on the App Store